Content
SEND FEEDBACK

Daily
Averages
Monthly
Summary
United Kingdom

LAKENHEATH, ENGLAND


Home > Europe > United Kingdom > England
Elevation: 33 feet     Latitude: 52 24N     Longitude: 000 34E

WEATHER
 
SELECT A DAY
Number of Records: 167,664;   Date Range: 8/10/96 - 8/22/14
 
SHARE

PRINT THIS DATA

[ ← Previous Day ]
WEATHER ALMANAC - OCTOBER 5, 2013
[ Next Day → ]
[ °C ]   °F
Weather ElementAverageHighLow
Temperature58.6 °F64.9 °F (12:58 pm)47.1 °F (11:58 pm)
Dewpoint53.1 °F56.1 °F (9:58 am)45.3 °F (11:58 pm)
Humidity82.6 %94 % (1:17 am)60 % (3:58 pm)
Barometer30.10 in30.25 in (10:58 pm)29.93 in (1:17 am)
Wind Speed5 mph9.2 mph (3:32 pm)
Weather ElementAverage
Visibility6.2 mi
Wind DirectionW (265.2 °)

Weather ElementTotal
Precipitation---
Heating Degree Days9 (Base 65)
Growing Degree Days6 (Base 50)
Averaged from 44 records on October 5, 2013
WEATHER CONDITIONS BREAKOUT
WIND DIRECTION BREAKOUT
WEATHER BY HOUR - OCTOBER 5, 2013
[ °C ]   °F
Local TimeTemperatureDewpointHumidityBarometerVisibilityWind DirectionWind SpeedGust SpeedPrecipitationEventsConditions
1:17 AM57.2 °F55.4 °F94 %29.93 in6.2 miWest (260°)6.9 mphOvercast
1:41 AM57.2 °F55.4 °F94 %29.94 in6.2 miSW (230°)4.6 mphOvercast
1:58 AM57.9 °F55.0 °F90 %29.96 in6.2 miSW (220°)4.6 mphOvercast
2:24 AM57.2 °F55.4 °F94 %29.95 in6.2 miWSW (240°)4.6 mphOvercast
2:29 AM57.2 °F55.4 °F94 %29.95 in6.2 miWSW (240°)5.8 mphOvercast
2:58 AM57.9 °F55.0 °F90 %29.96 in6.2 miWSW (240°)4.6 mphOvercast
3:58 AM57.7 °F55.0 °F91 %29.97 in6.2 miWSW (240°)4.6 mphOvercast
4:30 AM57.2 °F55.4 °F94 %29.97 in6.2 miWest (270°)5.8 mphOvercast
4:58 AM57.2 °F54.5 °F91 %29.99 in6.2 miWSW (250°)4.6 mphOvercast
4:59 AM57.2 °F55.4 °F94 %29.98 in6.2 miWest (260°)4.6 mphOvercast
5:58 AM57.2 °F54.5 °F91 %30.01 in6.2 miSW (230°)2.3 mphOvercast
6:58 AM56.7 °F54.7 °F93 %30.03 in6.2 miWSW (250°)3.5 mphOvercast
7:30 AM57.2 °F55.4 °F94 %30.03 in6.2 miWSW (240°)4.6 mphOvercast
7:34 AM57.2 °F55.4 °F94 %30.03 in6.2 miSW (230°)3.5 mphOvercast
7:49 AM57.2 °F55.4 °F94 %30.04 in6.2 miWSW (240°)4.6 mphOvercast
7:50 AM57.2 °F55.4 °F94 %30.04 in6.2 miWSW (240°)4.6 mphOvercast
7:58 AM57.2 °F55.4 °F94 %30.05 in6.2 miSW (230°)3.5 mphOvercast
8:58 AM57.9 °F55.8 °F92 %30.08 in6.2 miWSW (240°)5.8 mphOvercast
9:55 AM59.0 °F55.4 °F88 %30.08 in6.2 miWest (270°)6.9 mphOvercast
9:58 AM59.2 °F56.1 °F90 %30.09 in6.2 miWest (270°)5.8 mphOvercast
10:58 AM61.9 °F55.6 °F80 %30.11 in6.2 miNW (320°)5.8 mphOvercast
11:48 AM62.6 °F55.4 °F77 %30.11 in6.2 miNW (310°)8.1 mphOvercast
11:58 AM63.3 °F54.9 °F74 %30.12 in6.2 miNW (320°)5.8 mphOvercast
12:58 PM64.9 °F53.2 °F66 %30.13 in6.2 miWNW (300°)5.8 mphOvercast
1:40 PM64.4 °F53.6 °F68 %30.13 in6.2 miWNW (300°)4.6 mphOvercast
1:44 PM64.4 °F53.6 °F68 %30.13 in6.2 miNNW (330°)4.6 mphOvercast
1:47 PM64.4 °F53.6 °F68 %30.13 in6.2 miNW (320°)5.8 mphOvercast
1:52 PM64.4 °F51.8 °F64 %30.13 in6.2 miNW (320°)6.9 mphOvercast
1:58 PM64.0 °F52.5 °F66 %30.14 in6.2 miNW (320°)6.9 mphOvercast
2:58 PM62.4 °F54.3 °F75 %30.16 in6.2 miWNW (290°)6.9 mphOvercast
3:32 PM64.4 °F53.6 °F68 %30.15 in6.2 miNW (320°)9.2 mphOvercast
3:58 PM64.0 °F50.0 °F60 %30.17 in6.2 miNW (320°)9.2 mphOvercast
4:58 PM63.1 °F50.4 °F63 %30.17 in6.2 miWNW (290°)4.6 mphOvercast
5:58 PM60.4 °F51.3 °F72 %30.19 in6.2 miWNW (300°)5.8 mphClear
6:33 PM57.2 °F50.0 °F77 %30.19 in6.2 miWNW (300°)5.8 mphMostly Cloudy
6:54 PM57.2 °F50.0 °F77 %30.19 in6.2 miNW (310°)5.8 mphOvercast
6:58 PM57.9 °F50.4 °F76 %30.21 in6.2 miNW (310°)5.8 mphOvercast
7:00 PM59.0 °F50.0 °F72 %30.20 in6.2 miNW (310°)4.6 mphOvercast
7:16 PM57.2 °F50.0 °F77 %30.20 in6.2 miNW (320°)4.6 mphMostly Cloudy
7:58 PM55.8 °F49.3 °F79 %30.22 in6.2 miWest (280°)2.3 mphClear
8:58 PM52.2 °F47.3 °F83 %30.23 in6.2 miCalmClear
9:58 PM50.2 °F47.1 °F89 %30.24 in6.2 miSSW (210°)2.3 mphClear
10:58 PM47.8 °F46.2 °F94 %30.25 in6.2 miSouth (190°)1.2 mphClear
11:58 PM47.1 °F45.3 °F93 %30.25 in6.2 miSouth (190°)2.3 mphClear
Hourly data recorded from EGUN, located miles away from Lakenheath, England







STORIES FROM OUR PARTNERS